TimeEST,TemperatureF,Dew PointF,Humidity,Sea Level PressureIn,VisibilityMPH,Wind Direction,Wind SpeedMPH,Gust SpeedMPH,PrecipitationIn,Events,Conditions,WindDirDegrees,DateUTC
12:15 AM,6.8,-0.4,72,30.20,10.0,North,8.1,-,N/A,,Clear,350,2014-02-17 05:15:00
12:35 AM,6.8,-0.4,72,30.22,10.0,North,6.9,-,N/A,,Clear,350,2014-02-17 05:35:00
12:55 AM,5.0,-2.2,72,30.23,10.0,North,5.8,-,N/A,,Clear,360,2014-02-17 05:55:00
1:15 AM,5.0,-0.4,78,30.23,10.0,North,3.5,-,N/A,,Clear,350,2014-02-17 06:15:00
1:35 AM,3.2,-0.4,85,30.23,10.0,North,-9999.0,-,N/A,,Clear,0,2014-02-17 06:35:00
1:55 AM,3.2,-2.2,78,30.23,10.0,Calm,Calm,-,N/A,,Clear,0,2014-02-17 06:55:00
2:15 AM,3.2,-2.2,78,30.24,10.0,NW,3.5,-,N/A,,Clear,320,2014-02-17 07:15:00
2:35 AM,3.2,-0.4,85,30.23,10.0,Calm,Calm,-,N/A,,Clear,0,2014-02-17 07:35:00
2:55 AM,1.4,-5.8,72,30.23,10.0,Calm,Calm,-,N/A,,Clear,0,2014-02-17 07:55:00
3:15 AM,3.2,-0.4,85,30.24,10.0,Calm,Calm,-,N/A,,Clear,0,2014-02-17 08:15:00
3:35 AM,3.2,-4.0,72,30.23,10.0,Calm,Calm,-,N/A,,Clear,0,2014-02-17 08:35:00
3:55 AM,3.2,-0.4,85,30.22,10.0,Calm,Calm,-,N/A,,Clear,0,2014-02-17 08:55:00
4:15 AM,1.4,-4.0,78,30.23,10.0,Calm,Calm,-,N/A,,Clear,0,2014-02-17 09:15:00
4:35 AM,1.4,-2.2,85,30.23,10.0,Calm,Calm,-,N/A,,Clear,0,2014-02-17 09:35:00
4:55 AM,1.4,-2.2,85,30.25,10.0,Calm,Calm,-,N/A,,Clear,0,2014-02-17 09:55:00
5:15 AM,1.4,-2.2,85,30.26,10.0,West,3.5,-,N/A,,Clear,270,2014-02-17 10:15:00
5:35 AM,1.4,-2.2,85,30.27,10.0,Calm,Calm,-,N/A,,Clear,0,2014-02-17 10:35:00
5:55 AM,1.4,-4.0,78,30.26,10.0,NE,3.5,-,N/A,,Clear,50,2014-02-17 10:55:00
6:15 AM,1.4,-2.2,85,30.26,10.0,NE,3.5,-,N/A,,Clear,50,2014-02-17 11:15:00
6:35 AM,1.4,-4.0,78,30.26,10.0,Calm,Calm,-,N/A,,Clear,0,2014-02-17 11:35:00
6:55 AM,-2.2,-7.6,78,30.26,10.0,Calm,Calm,-,N/A,,Clear,0,2014-02-17 11:55:00
7:15 AM,1.4,-7.6,66,30.26,10.0,Calm,Calm,-,N/A,,Clear,0,2014-02-17 12:15:00
7:35 AM,-0.4,-4.0,85,30.27,6.0,Calm,Calm,-,N/A,,Clear,0,2014-02-17 12:35:00
7:55 AM,-2.2,-5.8,85,30.29,10.0,Calm,Calm,-,N/A,,Clear,0,2014-02-17 12:55:00
8:15 AM,-2.2,-9.4,71,30.31,10.0,WSW,5.8,-,N/A,,Clear,240,2014-02-17 13:15:00
8:35 AM,-0.4,-0.4,100,30.32,10.0,Calm,Calm,-,N/A,,Clear,0,2014-02-17 13:35:00
8:55 AM,1.4,1.4,100,30.32,10.0,Calm,Calm,-,N/A,,Clear,0,2014-02-17 13:55:00
9:15 AM,3.2,1.4,92,30.32,10.0,Calm,Calm,-,N/A,,Clear,0,2014-02-17 14:15:00
9:35 AM,3.2,-0.4,85,30.33,10.0,Calm,Calm,-,N/A,,Clear,0,2014-02-17 14:35:00
9:55 AM,6.8,1.4,79,30.32,10.0,SSE,3.5,-,N/A,,Clear,150,2014-02-17 14:55:00
10:15 AM,8.6,1.4,73,30.32,10.0,South,5.8,-,N/A,,Clear,170,2014-02-17 15:15:00
10:35 AM,8.6,1.4,73,30.31,10.0,South,5.8,-,N/A,,Clear,180,2014-02-17 15:35:00
10:55 AM,10.4,3.2,73,30.30,10.0,SE,4.6,-,N/A,,Clear,140,2014-02-17 15:55:00
11:15 AM,12.2,1.4,62,30.29,10.0,SSE,3.5,-,N/A,,Clear,150,2014-02-17 16:15:00
11:35 AM,14.0,3.2,62,30.28,10.0,SSE,5.8,-,N/A,,Clear,160,2014-02-17 16:35:00
11:55 AM,15.8,-0.4,49,30.26,10.0,East,6.9,-,N/A,,Clear,100,2014-02-17 16:55:00
12:15 PM,17.6,3.2,53,30.24,10.0,ESE,4.6,-,N/A,,Clear,110,2014-02-17 17:15:00
12:35 PM,17.6,1.4,49,30.24,10.0,SE,8.1,-,N/A,,Clear,140,2014-02-17 17:35:00
12:55 PM,19.4,3.2,49,30.23,10.0,South,5.8,-,N/A,,Clear,180,2014-02-17 17:55:00
1:15 PM,19.4,3.2,49,30.22,10.0,South,6.9,-,N/A,,Clear,180,2014-02-17 18:15:00
1:35 PM,21.2,3.2,46,30.21,10.0,South,8.1,-,N/A,,Clear,190,2014-02-17 18:35:00
1:55 PM,21.2,3.2,46,30.19,10.0,SSE,6.9,-,N/A,,Clear,160,2014-02-17 18:55:00
2:15 PM,24.8,3.2,40,30.18,10.0,SSE,5.8,-,N/A,,Clear,160,2014-02-17 19:15:00
2:35 PM,24.8,3.2,40,30.16,10.0,ESE,10.4,-,N/A,,Clear,120,2014-02-17 19:35:00
2:55 PM,26.6,3.2,37,30.15,10.0,ESE,8.1,-,N/A,,Clear,120,2014-02-17 19:55:00
3:15 PM,26.6,3.2,37,30.14,10.0,SE,8.1,-,N/A,,Clear,140,2014-02-17 20:15:00
3:35 PM,26.6,3.2,37,30.12,10.0,SE,9.2,-,N/A,,Clear,130,2014-02-17 20:35:00
3:55 PM,28.4,1.4,31,30.11,10.0,SSE,8.1,-,N/A,,Mostly Cloudy,150,2014-02-17 20:55:00
4:15 PM,28.4,3.2,34,30.09,10.0,SE,8.1,-,N/A,,Overcast,140,2014-02-17 21:15:00
4:35 PM,28.4,1.4,31,30.08,10.0,SSE,10.4,16.1,N/A,,Overcast,150,2014-02-17 21:35:00
4:55 PM,28.4,1.4,31,30.07,10.0,SE,10.4,-,N/A,,Mostly Cloudy,140,2014-02-17 21:55:00
5:15 PM,28.4,1.4,31,30.06,10.0,SSE,11.5,-,N/A,,Mostly Cloudy,150,2014-02-17 22:15:00
5:35 PM,28.4,1.4,31,30.03,10.0,SE,11.5,17.3,N/A,,Mostly Cloudy,140,2014-02-17 22:35:00
5:55 PM,26.6,1.4,34,30.02,10.0,SE,12.7,-,N/A,,Partly Cloudy,140,2014-02-17 22:55:00
6:15 PM,26.6,1.4,34,30.00,10.0,SSE,12.7,20.7,N/A,,Scattered Clouds,150,2014-02-17 23:15:00
6:35 PM,26.6,1.4,34,29.97,10.0,SE,17.3,25.3,N/A,,Overcast,140,2014-02-17 23:35:00
6:55 PM,26.6,1.4,34,29.96,10.0,SE,16.1,24.2,N/A,,Overcast,140,2014-02-17 23:55:00
7:15 PM,26.6,1.4,34,29.96,10.0,SSE,11.5,25.3,N/A,,Overcast,150,2014-02-18 00:15:00
7:35 PM,26.6,1.4,34,29.94,10.0,SSE,13.8,18.4,N/A,,Overcast,160,2014-02-18 00:35:00
7:55 PM,26.6,1.4,34,29.94,10.0,SSE,9.2,18.4,N/A,,Overcast,160,2014-02-18 00:55:00
8:15 PM,26.6,1.4,34,29.94,10.0,SSE,13.8,21.9,N/A,,Overcast,160,2014-02-18 01:15:00
8:35 PM,26.6,1.4,34,29.93,10.0,SSE,16.1,21.9,N/A,,Overcast,160,2014-02-18 01:35:00
8:55 PM,26.6,1.4,34,29.92,10.0,SSE,15.0,24.2,N/A,,Overcast,150,2014-02-18 01:55:00
9:15 PM,26.6,1.4,34,29.89,10.0,SE,15.0,24.2,N/A,,Overcast,140,2014-02-18 02:15:00
9:35 PM,26.6,1.4,34,29.82,10.0,SE,19.6,29.9,N/A,,Overcast,130,2014-02-18 02:35:00
9:55 PM,26.6,1.4,34,29.80,10.0,SE,17.3,24.2,N/A,,Overcast,130,2014-02-18 02:55:00
10:15 PM,26.6,1.4,34,29.83,10.0,South,17.3,29.9,N/A,,Overcast,170,2014-02-18 03:15:00
10:35 PM,26.6,1.4,34,29.77,10.0,SE,17.3,31.1,N/A,,Overcast,140,2014-02-18 03:35:00
10:55 PM,26.6,1.4,34,29.76,10.0,SSE,18.4,27.6,N/A,,Mostly Cloudy,160,2014-02-18 03:55:00
11:15 PM,26.6,1.4,34,29.76,10.0,SSE,15.0,29.9,N/A,,Overcast,160,2014-02-18 04:15:00
11:35 PM,24.8,3.2,40,29.75,7.0,South,26.5,36.8,N/A,,Overcast,170,2014-02-18 04:35:00
11:55 PM,23.0,12.2,63,29.74,2.5,SSE,20.7,33.4,N/A,,Overcast,150,2014-02-18 04:55:00